This demonstration page uses our WeatherBlox Daily Observations layout. Learn more.

36.19886, -115.1175

Hourly Observations for August 12, 2020

Temp ( °F °C ) Dew Point ( °F °C ) Humidity (%) Winds ( mph kmh ) Pressure ( in mb ) Visibility ( mi km ) Precip ( " mm )
12:53 am 00:53 Clear 87 30.6 10 -12.2 5 5 SSE 7 11 29.8 1009 10 16.0934 0 0
1:53 am 01:53 Clear 88 31.1 14 -10 6 6 SSW 7 11 29.8 1009 10 16.0934 0 0
2:53 am 02:53 Clear 83 28.3 19 -7.2 9 9 WNW 3 6 29.82 1010 10 16.0934 0 0
3:53 am 03:53 Clear 81 27.2 23 -5 12 12 N 3 6 29.83 1010 10 16.0934 0 0
4:53 am 04:53 Clear 78 25.6 23 -5 13 13 Calm 29.84 1011 10 16.0934 0 0
5:53 am 05:53 Clear 75 23.9 24 -4.4 15 15 NW 6 9 29.85 1011 10 16.0934 0 0
6:53 am 06:53 Sunny 77 25 25 -3.9 14 14 NNW 5 7 29.87 1012 10 16.0934 0 0
7:53 am 07:53 Sunny 81 27.2 28 -2.2 14 14 NNW 3 6 29.89 1012 10 16.0934 0 0
8:53 am 08:53 Sunny 86 30 26 -3.3 11 11 NNW 5 7 29.89 1012 10 16.0934 0 0
9:53 am 09:53 Sunny 91 32.8 29 -1.7 11 11 Calm 29.9 1012 10 16.0934 0 0
10:53 am 10:53 Sunny 99 37.2 26 -3.3 7 7 SE 9 15 29.89 1012 10 16.0934 0 0
11:36 am 11:36 Sunny 103 39.4 8 -13.3 3 3 SSW 14 22 29.7 1006 10 16.0934 0 0
11:53 am 11:53 Sunny 103 39.4 9 -12.8 3 3 SW 10 17 29.86 1011 10 16.0934 0 0
12:53 pm 12:53 Sunny 104 40 11 -11.7 3 3 SW 14 22 29.85 1011 10 16.0934 0 0
1:53 pm 13:53 Sunny 105 40.6 9 -12.8 3 3 SW 12 19 29.83 1010 10 16.0934 0 0
2:53 pm 14:53 Sunny 107 41.7 5 -15 2 2 SW 15 24 29.81 1010 10 16.0934 0 0
3:53 pm 15:53 Sunny 107 41.7 3 -16.1 2 2 SW 16 26 29.79 1009 10 16.0934 0 0
4:53 pm 16:53 Sunny 107 41.7 9 -12.8 3 3 SW 18 30 29.78 1009 10 16.0934 0 0
5:53 pm 17:53 Sunny 106 41.1 14 -10 3 3 WSW 17 28 29.77 1008 10 16.0934 0 0
6:53 pm 18:53 Sunny 104 40 21 -6.1 5 5 SSW 12 19 29.77 1008 10 16.0934 0 0
7:53 pm 19:53 Clear 101 38.3 23 -5 6 6 SSW 14 22 29.78 1009 10 16.0934 0 0
8:53 pm 20:53 Clear 99 37.2 27 -2.8 8 8 SW 7 11 29.8 1009 10 16.0934 0 0
9:53 pm 21:53 Clear 97 36.1 28 -2.2 9 9 WSW 6 9 29.81 1010 10 16.0934 0 0
10:53 pm 22:53 Clear 94 34.4 29 -1.7 10 10 Calm 29.82 1010 10 16.0934 0 0
11:53 pm 23:53 Clear 91 32.8 29 -1.7 11 11 Calm 29.82 1010 10 16.0934 0 0

Powered by AerisWeather